Beaumont, TX

6:46 AM CDT on July 22, 2017 (GMT -0500)
Southeast Texas Regional

Weather History for KBPT - February, 2013

Change the Weather History Date:

Friday, February 8, 2013

  Actual Average Record
Temperature  
Mean Temperature 61 °F 55 °F  
Max Temperature 69 °F 64 °F 88 °F (2017)
Min Temperature 53 °F 45 °F 18 °F (1933)
Degree Days  
Heating Degree Days 4 11  
Month to date heating degree days 33 90  
Since 1 July heating degree days 817 1033  
Cooling Degree Days 0 1  
Month to date cooling degree days 2 2  
Year to date cooling degree days 25 13  
Growing Degree Days 12 (Base 50)    
Moisture  
Dew Point 55 °F    
Average Humidity 79    
Maximum Humidity 100    
Minimum Humidity 58    
Precipitation  
Precipitation 0.00 in 0.14 in 1.52 in (1990)
Month to date precipitation 0.90 1.08  
Year to date precipitation 9.12 6.34  
Snow  
Snow 0.00 in 0.00 in 0.00 in ()
Month to date snowfall 0.0 0.0  
Since 1 July snowfall 0.0 T  
Snow Depth 0.00 in    
Sea Level Pressure  
Sea Level Pressure 30.08 in    
Wind  
Wind Speed 11 mph (NNW)    
Max Wind Speed 21 mph    
Max Gust Speed 25 mph    
Visibility 8 miles    
Events Fog    
T = Trace of Precipitation, MM = Missing Value Source: NWS Daily Summary

Daily Weather History Graph

Daily Weather History Graph

Search for Another Location

Airport or City:

Trip Planner

Search our weather history database for the weather conditions in past years. The results will help you decide how hot, cold, wet, or windy it might be!

Date:

Astronomy

Feb. 08, 2013 Rise Set
Actual Time 7:01 AM CST 5:59 PM CST
Civil Twilight 6:36 AM CST 6:24 PM CST
Nautical Twilight 6:08 AM CST 6:52 PM CST
Astronomical Twilight 5:40 AM CST 7:20 PM CST
Moon 5:27 AM CST (2/8) 4:35 PM CST (2/8)
Length of Visible Light 11h 47m
Length of Day
10h 58m
Waning Crescent, 3% of the Moon is Illuminated
Feb 8
Waning Crescent
Feb 10
New
Feb 17
First Quarter
Feb 25
Full
Mar 4
Last Quarter

Hourly Weather History & Observations

Time (CST) Temp. Dew Point Humidity Pressure Visibility Wind Dir Wind Speed Gust Speed Precip Events Conditions
12:53 AM 61.0 °F 60.1 °F 97% 29.99 in 10.0 mi SW 4.6 mph - N/A   Overcast
1:48 AM 60.8 °F 60.8 °F 100% 29.99 in 1.8 mi WSW 4.6 mph - N/A   Overcast
1:53 AM 60.1 °F 60.1 °F 100% 29.99 in 1.2 mi WSW 3.5 mph - N/A   Overcast
2:07 AM 60.8 °F 60.8 °F 100% 30.00 in 0.5 mi WSW 4.6 mph - N/A Fog Fog
2:41 AM 60.8 °F 60.8 °F 100% 30.00 in 1.5 mi West 5.8 mph - N/A   Overcast
2:45 AM 60.8 °F 60.8 °F 100% 30.00 in 3.0 mi West 4.6 mph - N/A   Overcast
2:53 AM 60.1 °F 60.1 °F 100% 30.00 in 4.0 mi West 3.5 mph - N/A   Overcast
3:14 AM 60.8 °F 60.8 °F 100% 30.00 in 1.8 mi West 4.6 mph - N/A   Overcast
3:26 AM 60.8 °F 60.8 °F 100% 30.01 in 3.0 mi West 3.5 mph - N/A   Overcast
3:45 AM 60.8 °F 60.8 °F 100% 30.01 in 5.0 mi WNW 8.1 mph - N/A   Overcast
3:53 AM 61.0 °F 60.1 °F 97% 30.01 in 8.0 mi NW 9.2 mph - N/A   Overcast
4:53 AM 60.1 °F 57.9 °F 93% 30.02 in 10.0 mi NNW 9.2 mph - N/A   Overcast
5:53 AM 59.0 °F 55.9 °F 90% 30.04 in 10.0 mi NW 11.5 mph - N/A   Overcast
6:09 AM 57.2 °F 55.4 °F 94% 30.05 in 10.0 mi NW 12.7 mph - N/A   Overcast
6:53 AM 57.9 °F 55.0 °F 90% 30.07 in 10.0 mi North 9.2 mph - N/A   Overcast
7:13 AM 57.2 °F 53.6 °F 88% 30.07 in 10.0 mi North 16.1 mph - N/A   Overcast
7:53 AM 57.0 °F 53.1 °F 87% 30.10 in 10.0 mi North 19.6 mph 24.2 mph N/A   Overcast
8:53 AM 57.0 °F 52.0 °F 83% 30.14 in 10.0 mi North 15.0 mph - N/A   Overcast
9:18 AM 57.2 °F 51.8 °F 82% 30.14 in 10.0 mi NNW 11.5 mph 19.6 mph N/A   Overcast
9:53 AM 59.0 °F 51.1 °F 75% 30.15 in 10.0 mi North 12.7 mph - N/A   Overcast
10:53 AM 60.1 °F 52.0 °F 75% 30.16 in 10.0 mi North 10.4 mph - N/A   Overcast
11:53 AM 62.1 °F 52.0 °F 70% 30.15 in 10.0 mi North 11.5 mph - N/A   Overcast
12:53 PM 64.9 °F 52.0 °F 63% 30.13 in 10.0 mi North 10.4 mph - N/A   Mostly Cloudy
1:33 PM 68.0 °F 53.6 °F 60% 30.12 in 10.0 mi NNW 8.1 mph - N/A   Mostly Cloudy
1:53 PM 68.0 °F 53.1 °F 59% 30.10 in 10.0 mi North 12.7 mph 18.4 mph N/A   Mostly Cloudy
2:53 PM 68.0 °F 53.1 °F 59% 30.10 in 10.0 mi North 12.7 mph 20.7 mph N/A   Mostly Cloudy
3:53 PM 66.0 °F 52.0 °F 60% 30.10 in 10.0 mi North 12.7 mph - N/A   Partly Cloudy
4:53 PM 64.9 °F 50.0 °F 58% 30.11 in 10.0 mi NNE 10.4 mph - N/A   Scattered Clouds
5:53 PM 62.1 °F 51.1 °F 67% 30.12 in 10.0 mi NNE 10.4 mph - N/A   Partly Cloudy
6:53 PM 57.9 °F 52.0 °F 81% 30.13 in 10.0 mi NNE 10.4 mph - N/A   Clear
7:53 PM 57.0 °F 51.1 °F 81% 30.14 in 10.0 mi NNE 8.1 mph - N/A   Clear
8:53 PM 55.9 °F 51.1 °F 84% 30.15 in 10.0 mi NE 9.2 mph - N/A   Clear
9:53 PM 55.9 °F 51.1 °F 84% 30.14 in 10.0 mi NE 15.0 mph - N/A   Clear
10:53 PM 54.0 °F 48.9 °F 83% 30.16 in 10.0 mi ENE 10.4 mph - N/A   Partly Cloudy
11:53 PM 53.1 °F 48.0 °F 83% 30.16 in 10.0 mi ENE 12.7 mph - N/A   Clear